Location: Oak Glen
(34.0495°N, 116.9470°E)
Time: 11:51:34
(UTC-07:00)

Hubble Space Telescope - Pass Details

Date: 11 October 2017
Orbit: 537 x 541 km, 28.5° (Epoch: 17 October)

Event Time Altitude Azimuth Distance (km) Brightness Sun altitude
Exits shadow 13:06:32 14° 151° (SSE) 1,534 3.3 -27.3°
Drops below altitude 10° 13:07:23 10° 143° (SE) 1,782 3.7 -27.1°
Sets 13:09:58 0° 128° (SE) 2,672 4.9 -26.6°
